CAPE
689 456 365 442 340 187 311 521 1067 1036 1362 1678 1875 1512 1461 1116 1465 2002 1904 2484 2437 2359 2493 2488 2591 2737 2867 2909 2938 3147 3258 3200 3126 2994 2818 2754 2501 2538 2606 2637 2740 2899 2656 2494 2731 2902 2977 2802 2918 2862 2928 2791 2704 3073 3342 3131 3186 3142 3267 3473 3253 3838 4051
683 526 615 526 532 319 364 1103 1387 1059 1358 1609 1891 1752 1376 1250 1977 2131 2340 2727 2602 2392 2404 2383 2570 2446 2631 2800 2778 3179 3129 3275 3207 2992 2963 3196 3274 3153 2862 2763 2826 3107 3176 2980 3015 2996 3172 3038 2781 2764 2737 2767 2654 3121 3101 3222 2967 3246 2929 3420 3490 3749 3792
1298 1305 1054 674 514 382 346 807 1330 1023 1173 1215 1254 1394 1330 1749 2277 2454 2622 2695 2692 2418 2403 2352 2609 2416 2403 2400 2504 2847 2943 3204 3281 3113 2989 2853 3070 2638 2782 2785 2799 2603 2707 2688 2903 3136 3199 3592 3126 2932 2710 2559 2502 3048 3296 3411 3379 3102 3174 3828 3645 3423 3609
1499 1262 1191 1007 873 817 792 971 1302 950 1006 1162 1099 1349 1470 2122 2341 2615 2650 2320 2441 2524 2476 2198 2297 2139 2182 2212 2335 2644 2803 2870 3081 3017 2794 2787 2782 2792 2900 3001 2692 2498 2632 2764 2613 2680 2694 3182 3553 3120 2731 3105 3370 3353 3356 3180 3131 2900 2860 3300 3434 3591 3823
1502 1412 1358 1141 793 875 973 1167 1449 1240 930 960 1090 1592 1646 2116 2206 2410 2326 1866 1443 1912 2111 2082 1770 1795 2032 2072 1829 1984 2382 2466 2649 2854 2860 2819 2773 2928 2965 2716 2520 2557 2521 2381 2654 3043 3123 3385 3434 3222 3118 3245 3348 3392 3628 3437 3232 3648 3082 3343 3441 3550 3856
1678 1631 1596 1181 870 723 769 1140 1327 1111 965 1038 1143 1438 1500 1646 1798 1757 1708 1644 1198 1350 1885 2000 1476 1637 2024 1972 1622 1355 1927 2247 2552 2638 2871 2983 3100 2807 3018 2832 2722 2720 2451 2517 2376 2646 3222 3092 3126 3164 2937 2795 2839 3247 3239 3400 3448 3398 3522 3470 3641 3684 3320
1739 1820 2003 1552 1120 929 903 1002 1055 1098 1023 1115 1254 1437 1217 1137 1353 1232 1113 1161 1145 1235 1477 1776 1415 1526 2170 1688 1728 1703 1816 2087 2336 2296 2511 2762 2866 2789 2775 2908 2943 2573 2412 2675 2697 2641 2799 2913 3052 3343 3215 3142 3139 2957 3006 3768 3750 3713 3953 3832 4280 3718 3817
1635 2080 1920 1716 1269 885 678 638 670 752 826 892 1377 1554 1252 859 990 937 855 1293 1782 1419 1383 1104 1340 1766 2150 1950 1744 1703 1859 1700 1885 2082 1932 2168 2574 2539 2509 2804 3057 3095 2965 2898 3063 3011 2627 2847 2814 3002 3166 3104 3190 3126 3302 3517 3926 3842 3450 3833 3924 4100 3518
1942 1972 2097 1792 1462 948 573 544 550 522 850 1010 1255 1598 1398 1312 980 985 898 1795 2496 2514 2517 1375 1423 1654 2392 2313 2053 2143 1866 1531 1415 1753 1600 1566 1971 2221 2123 2532 2998 3008 3061 2661 2685 2890 2814 2821 2669 3064 3369 3280 3391 3951 3732 4298 3845 3433 3915 3830 3915 3978 3403
1958 2061 2303 2474 2217 1660 2218 1776 889 789 916 1159 1359 1696 1386 1252 1237 1437 1648 2074 2668 2930 2965 2205 2141 2518 2865 2809 2225 1952 1796 1835 1410 1006 976 889 1107 1381 1794 2028 2252 2664 2793 2520 2476 2740 2876 2933 2904 3418 3691 3716 3998 4393 4106 4165 3980 4002 3894 3877 3881 3892 3993
1826 1595 1680 2192 2203 2096 2126 2240 2418 2377 1566 1554 1675 1650 1377 1395 1407 1512 1870 2276 2822 3125 3211 2474 2749 3040 3211 3262 2888 2179 1658 1676 1323 1094 895 598 526 731 933 1107 1462 2006 1644 1972 2112 2496 2817 3052 3340 3576 4040 3468 3726 3991 4094 3966 3975 4189 3495 3705 3737 3733 3582
1622 1630 1618 1796 2085 2014 1882 1658 1706 1752 1961 2069 1912 1711 1499 1647 1703 1693 2115 2377 2714 3048 3270 2758 3134 3343 3468 3377 3097 2859 2006 1777 1468 1074 902 744 536 471 550 479 496 855 1266 1164 1673 2279 2527 2986 3035 3331 3778 3652 3621 3804 4009 3946 4156 4122 3987 3497 3548 3420 3395
1271 1381 1646 1591 1558 1813 2040 2137 2194 1965 1761 1987 1922 1903 1970 2017 2050 2033 2317 2692 2524 2793 3262 3108 3416 3613 3350 3051 3098 3217 2682 2360 1892 1511 1028 950 850 619 564 512 440 475 594 792 935 1577 1928 2264 2839 3102 3291 3576 3512 3404 3580 3850 3571 3802 3873 3611 3436 3386 3551
1374 1501 1614 1644 1614 1722 1826 1953 2064 2163 2217 1503 1142 1087 1262 1890 2301 2488 2822 2882 2796 2944 3356 3362 3502 3442 3181 2930 2822 3218 3159 3077 2747 2202 1784 1325 1367 1301 1064 902 680 582 507 627 844 972 1102 1371 1774 2354 2601 2804 2903 3013 2975 3322 3563 3886 4025 3787 3353 3172 3322
1127 1205 1503 1580 1734 1823 1884 1867 1892 1948 1465 1692 1842 1751 1946 1999 2289 2378 2670 2700 3055 3244 3352 3374 3354 3361 3178 3021 2862 3130 3169 3061 3049 2977 2628 2084 2356 2412 1995 1508 1430 1392 1407 1376 1308 974 920 1035 1130 1601 2006 2030 2172 2278 2457 2487 3022 3192 3391 3158 3265 3068 2970
1121 1199 1232 1320 1696 1786 1591 1844 1800 1573 1785 1770 1672 1651 1672 1648 1459 2206 2332 2552 2520 2942 3069 3337 3256 3429 3128 2988 2926 3079 3299 3378 3427 3470 3805 3194 2816 2881 2730 2351 2097 1951 1940 1977 1961 1709 1668 1592 1602 1662 1802 2062 2134 2154 2112 2116 2351 2701 2904 2745 2986 3291 2905
1274 1371 1194 1469 1378 1114 1155 1572 1466 1558 1459 1547 1708 1672 1612 1627 1714 1606 1689 1977 1809 2229 2393 2565 2953 3190 2764 2940 3097 3394 3119 3264 3052 3533 4014 4117 3709 3517 3519 3488 3150 2754 2619 2367 2436 2358 2472 2271 1947 1757 1403 1424 1496 1763 1582 1750 1954 2426 2130 1817 1315 2264 2392
1345 1376 1038 974 1030 1148 1121 1109 1155 1128 1125 1104 1153 1195 1169 1214 1448 1618 1710 1710 1759 2067 1925 2001 2397 2632 2636 3149 2820 2944 2924 2582 2384 2407 2589 2949 3576 4402 4013 3898 3887 3921 3613 3024 2690 2796 2560 2381 2069 2118 1697 1357 1287 1065 1237 1891 1743 1726 1515 1115 1260 1661 2780
1300 1200 873 963 1084 1186 1239 1253 1218 1256 1198 1140 1130 1094 1049 999 1212 1519 1700 1714 1936 1572 2028 1721 1770 1813 2031 1779 2074 1987 2002 1912 1901 1750 1771 2036 2491 3169 3656 3676 3745 3603 3365 3045 2980 2698 2558 2325 2194 2348 2214 1729 1887 1647 1760 1955 1521 1152 878 698 665 807 1176
1058 1000 927 969 953 922 952 922 883 898 964 1022 1075 1099 1077 1021 991 979 1145 1309 1289 1428 1529 1596 1624 1725 1720 1694 1769 1867 1718 1870 1759 2047 2118 1956 2057 2421 2780 2497 2187 2349 2016 2063 2586 2523 2546 2206 2138 2137 2380 2369 2226 2658 2026 1575 1150 1298 1128 1123 861 885 935
832 742 799 887 911 870 834 804 755 689 668 608 576 567 613 604 635 720 810 842 983 1033 1261 1331 1431 1382 1410 1535 1649 1708 1689 1737 1780 1750 1710 1605 1664 1683 1512 1497 1421 1433 1538 1718 1677 1938 2312 2147 2181 2049 2259 2439 2659 2122 1531 1443 1376 1288 1366 1312 1296 1099 1120
870 954 904 745 709 756 765 736 700 703 647 524 524 487 511 524 533 590 656 720 753 738 937 998 929 1097 1243 1112 2123 2259 2228 2163 2051 1729 1563 1480 1435 862 804 897 1026 1233 1367 1023 1031 1716 1856 2286 2159 2182 2257 2454 2354 1517 1280 1449 1486 1471 1361 1386 1410 1396 1643
676 623 558 566 648 714 700 656 640 561 450 464 487 504 451 540 534 476 519 568 640 688 732 794 845 816 829 875 831 1129 1379 1147 903 855 830 715 583 571 701 773 855 940 964 794 1391 1639 1923 1488 1594 1940 2024 1707 1501 1410 1318 1429 1456 1440 1403 1262 1318 1405 2292
666 559 489 576 638 622 560 489 370 232 198 393 472 430 415 399 542 479 440 622 679 682 719 673 666 695 685 584 729 670 665 627 517 596 596 628 648 679 698 675 733 817 826 846 962 980 1149 1244 1246 1042 1216 1232 1089 1338 1314 1256 1195 1177 1155 1103 1035 1139 1854
482 417 408 409 411 392 268 196 176 93 49 91 249 300 256 311 502 454 418 340 488 561 468 376 549 509 250 493 543 622 620 628 565 621 660 679 757 709 677 658 679 717 769 734 751 812 918 913 860 841 850 822 1021 1082 1070 1052 1005 972 952 987 1017 1016 1812
411 386 350 331 291 248 225 159 110 61 24 0 80 238 155 190 285 315 331 392 314 314 343 336 408 416 320 227 120 345 342 566 506 423 392 391 415 405 492 479 497 629 681 678 604 685 780 804 822 803 673 647 751 861 866 838 870 918 928 937 961 992 1015
306 326 329 275 266 217 190 178 28 0 0 0 0 150 204 187 196 222 233 315 350 276 217 74 71 255 370 360 399 276 253 294 295 315 278 181 146 179 200 74 243 432 532 512 559 552 615 622 639 584 545 576 594 624 652 674 694 737 773 790 778 812 838
326 265 168 179 154 166 243 244 169 130 63 76 7 181 179 198 182 181 172 228 280 316 185 204 157 199 247 223 0 169 165 2 15 234 244 226 101 0 0 0 0 0 0 188 237 246 332 400 405 388 370 329 308 304 330 363 400 441 506 542 562 571 543
194 196 52 94 80 128 199 205 158 150 84 48 25 20 98 219 207 179 166 153 204 286 268 228 195 193 120 135 98 11 54 0 0 49 172 172 91 0 0 0 0 0 0 121 167 245 301 195 189 227 226 182 174 157 151 164 182 221 245 252 257 304 372
92 86 37 6 22 22 63 119 109 118 150 64 33 64 113 107 100 104 112 106 91 122 182 221 212 193 178 158 110 4 17 124 26 0 0 0 0 0 0 0 0 0 0 0 53 147 116 0 108 165 174 144 116 93 84 71 88 82 79 77 64 61 15
124 180 92 89 2 1 5 7 13 11 4 8 35 47 90 100 137 135 102 99 86 99 114 128 130 154 179 49 0 70 108 94 122 128 0 0 0 0 0 0 0 0 1 0 0 3 3 34 30 3 15 1 0 0 0 8 20 23 0 0 0 0 0
33 58 26 66 0 0 0 0 1 1 4 4 9 6 12 24 46 90 72 80 92 107 108 116 137 153 152 144 163 146 71 0 94 64 0 0 0 30 94 105 0 0 0 0 1 2 0 0 1 0 0 0 0 3 2 1 1 0 0 0 0 0 0
18 8 10 33 11 4 0 0 0 0 0 0 0 1 3 7 56 54 37 8 52 68 79 87 85 96 105 149 141 14 0 0 0 0 0 0 0 0 0 0 0 0 0 9 4 0 0 0 0 0 1 2 2 3 6 8 6 5 2 2 1 0 0
81 21 8 1 12 4 2 0 0 0 0 0 0 0 0 1 1 2 2 27 30 55 53 114 117 116 117 90 56 0 0 0 0 0 0 0 0 0 0 0 0 0 1 0 1 13 6 1 1 0 2 2 0 1 1 2 0 0 0 0 0 0 0
115 110 32 8 1 9 11 3 0 0 0 3 2 3 0 1 0 1 3 0 2 9 12 12 63 67 110 3 2 2 1 0 0 0 0 0 0 0 0 0 0 0 0 0 0 0 0 1 0 0 0 0 1 0 0 0 0 0 0 0 0 0 0
23 18 7 1 0 0 0 0 0 0 0 0 0 1 0 1 3 3 3 7 8 9 10 12 9 86 93 43 34 7 2 1 0 2 0 0 0 0 0 0 0 0 0 0 0 0 0 0 0 0 0 0 0 0 1 0 0 0 0 0 0 0 0
21 8 14 0 0 0 0 0 0 0 0 0 0 0 3 7 8 11 11 11 13 10 10 10 11 10 12 9 10 10 11 9 12 9 8 9 6 0 0 0 0 0 0 0 0 0 0 0 0 0 0 0 0 0 0 0 0 0 0 0 0 0 0
0 0 2 3 2 1 0 0 1 4 0 0 0 0 0 0 3 8 8 14 16 17 15 12 13 28 8 11 13 11 17 18 23 20 18 14 17 14 12 7 2 0 0 0 0 0 0 0 0 0 0 0 0 0 0 0 0 0 0 0 0 0 0
Wind_Speed
11 10 10 10 8 6 7 8 8 10 11 10 9 7 7 7 8 9 10 10 8 8 7 5 5 5 5 6 5 6 6 7 8 7 7 7 8 8 6 6 5 6 6 5 5 5 5 5 6 6 5 5 6 6 7 8 8 8 8 8 8 9 9
14 13 11 10 9 6 6 7 8 9 11 11 10 8 8 7 9 9 10 10 8 8 8 7 6 6 6 6 7 5 6 6 7 8 8 8 8 8 8 7 8 8 8 9 8 8 7 6 6 6 6 5 5 6 7 7 7 7 7 7 8 8 8
16 14 12 11 9 8 7 7 8 9 10 11 11 10 10 10 10 9 10 10 9 8 8 8 7 6 6 7 7 6 6 6 6 6 7 7 6 6 7 8 9 9 9 8 8 8 8 7 7 7 6 6 6 6 7 8 7 7 7 7 7 7 7
9 10 11 12 12 10 10 10 10 10 10 11 12 12 12 11 10 11 10 10 9 8 7 8 8 7 8 7 7 6 6 6 6 6 6 8 8 8 8 8 10 10 9 9 8 8 9 9 8 7 6 6 7 7 7 8 8 7 7 7 6 8 7
13 12 13 16 17 15 12 11 11 11 10 10 12 13 14 13 12 12 10 10 8 7 7 6 7 8 9 8 9 9 7 5 6 7 8 9 9 10 9 8 8 8 9 8 8 8 9 8 7 7 7 6 6 7 7 8 8 8 8 7 7 8 7
16 17 18 22 17 12 12 12 11 10 11 11 12 14 15 15 14 12 11 11 9 9 7 6 6 9 9 9 9 10 9 7 7 8 9 10 10 9 9 9 9 7 7 7 7 6 6 6 6 7 6 6 5 6 7 7 7 7 8 8 7 7 6
19 21 20 20 16 12 13 14 13 11 11 12 13 14 15 16 15 14 14 12 11 10 8 7 7 9 10 11 11 11 11 10 9 7 9 9 9 9 10 11 9 8 8 8 7 6 6 5 6 6 6 6 6 6 7 8 8 7 8 7 7 6 6
19 19 19 19 17 15 14 14 12 12 12 14 15 15 14 15 16 17 16 16 14 14 11 10 10 11 12 11 12 11 12 11 11 10 10 9 10 9 10 11 10 10 10 9 8 7 7 6 6 6 7 6 7 7 8 8 7 6 6 6 6 5 6
18 19 20 19 19 19 18 17 16 14 14 14 16 16 16 16 17 18 17 19 18 17 15 14 14 14 14 13 12 11 12 12 13 13 11 10 11 10 10 10 10 11 10 10 10 9 8 8 7 8 7 7 8 8 8 8 6 6 6 6 6 6 5
20 20 21 23 25 25 27 29 23 19 17 17 18 19 18 17 18 19 19 20 21 19 19 18 19 18 17 16 14 12 12 13 14 13 13 12 13 12 11 11 11 11 11 11 12 11 11 10 10 10 9 8 8 8 8 8 7 6 6 6 6 6 6
20 18 20 23 25 27 27 28 26 24 22 21 21 22 20 19 19 19 19 20 21 21 21 20 22 22 21 19 18 15 14 13 13 14 14 14 15 14 13 12 13 14 12 12 12 12 13 13 12 12 11 10 10 9 9 9 8 7 6 7 8 7 7
20 18 18 20 24 25 24 23 23 23 22 22 24 25 22 21 21 20 20 19 20 21 21 21 22 22 23 23 21 19 16 15 15 15 15 16 16 16 15 15 14 14 14 13 13 13 13 14 13 14 13 12 12 11 11 11 10 9 8 9 9 9 8
20 19 19 18 19 20 22 22 22 22 20 19 23 24 26 24 23 21 20 20 20 21 22 22 22 22 22 23 23 23 21 19 18 18 18 18 18 18 17 16 16 15 14 15 14 14 14 14 14 15 14 14 13 13 13 12 11 11 11 10 10 10 10
20 19 20 19 18 17 17 17 19 21 22 21 22 23 24 23 24 25 24 23 23 23 23 23 21 21 21 21 21 23 24 23 22 21 21 21 21 19 19 19 18 18 17 16 15 15 14 14 15 16 15 15 14 14 14 13 13 13 12 11 11 11 11
19 19 20 20 18 18 16 16 17 19 19 21 23 21 21 22 26 27 28 28 26 24 23 23 22 22 22 21 20 21 23 25 26 25 24 22 23 22 21 19 19 19 19 19 18 18 17 17 17 17 17 17 16 15 15 14 14 14 13 12 13 13 12
20 23 24 24 24 23 21 20 21 19 19 19 19 20 20 20 21 24 26 27 25 24 25 25 22 23 23 22 21 22 23 25 28 29 27 26 25 24 23 21 20 20 20 20 20 20 21 21 21 20 20 20 19 18 16 16 15 18 23 22 18 16 15
23 25 27 30 30 27 26 24 23 22 21 19 19 19 20 20 20 21 21 21 22 24 25 23 23 24 25 26 25 25 26 26 27 28 28 27 27 27 27 26 24 23 23 23 23 22 24 23 22 21 21 20 20 18 18 18 28 32 27 21 18 16 16
28 31 32 32 32 32 32 33 33 32 31 30 29 29 28 26 23 20 21 22 23 26 28 25 24 26 27 30 29 29 30 28 27 25 25 25 27 29 31 31 30 29 28 26 25 25 24 24 23 23 22 23 21 21 19 28 34 32 31 25 20 17 17
29 31 32 33 34 34 34 34 35 35 34 32 28 27 27 25 23 21 21 21 25 27 29 27 26 27 28 30 31 31 31 30 28 27 27 27 27 29 33 34 34 32 30 30 30 29 26 26 26 25 24 23 25 23 27 31 37 33 31 29 26 21 18
27 29 31 33 35 36 37 37 37 38 39 37 34 31 29 27 26 25 26 24 25 26 25 26 28 30 30 31 34 35 35 35 34 34 36 37 34 33 35 39 39 39 38 35 33 31 29 27 28 27 26 26 26 29 32 33 35 32 30 29 27 25 20
32 32 27 30 33 35 36 38 39 40 40 39 39 38 36 35 34 35 35 35 36 30 27 28 30 31 32 33 32 33 35 35 34 33 35 38 38 40 43 45 43 41 38 36 35 31 29 28 30 30 29 30 30 28 33 35 38 34 33 31 27 27 22
35 32 30 31 33 36 37 37 39 40 41 40 39 40 40 40 39 39 39 39 39 38 36 33 31 33 35 36 39 38 36 36 37 36 34 35 38 41 42 43 43 41 37 39 40 37 36 34 33 34 33 33 31 32 34 38 39 36 35 32 30 27 22
37 35 34 35 35 38 39 39 38 39 39 40 41 41 41 39 39 41 41 42 42 41 38 38 38 38 38 41 42 43 42 42 41 40 38 38 38 39 39 41 44 44 42 42 43 44 44 39 36 37 38 39 37 35 36 39 40 38 38 35 32 25 23
42 39 37 38 39 41 42 40 39 38 39 41 41 40 39 38 37 39 40 41 42 43 43 41 40 37 38 40 42 43 42 41 42 42 41 39 39 39 39 40 39 38 39 45 50 52 50 46 44 42 40 41 39 37 40 42 43 43 41 39 37 31 25
43 42 42 42 42 44 44 42 41 nan nan nan 41 39 39 39 38 38 40 42 43 45 45 44 42 40 39 40 41 40 37 35 34 36 37 36 36 36 34 33 36 39 39 43 49 54 51 47 46 47 43 43 43 43 43 44 45 45 44 43 42 36 31
45 44 44 46 47 48 48 46 44 nan nan nan nan 38 38 38 38 39 39 40 41 43 44 44 43 42 42 42 42 42 42 37 35 35 36 37 36 33 30 28 30 32 32 31 35 45 49 48 45 47 44 44 43 43 44 45 45 46 46 46 45 42 36
45 45 46 48 50 50 48 46 nan nan nan nan nan 38 38 38 38 38 38 39 41 42 42 nan nan 41 40 41 41 40 42 42 40 38 37 35 34 33 31 nan 26 26 25 22 21 28 36 41 43 46 47 46 44 43 43 42 42 44 47 46 46 45 39
48 47 50 52 50 48 48 48 47 45 nan nan nan 38 38 39 38 37 37 39 41 41 40 40 40 42 43 43 nan 38 40 nan nan 39 37 36 35 nan nan nan nan nan nan 25 22 24 28 30 33 38 42 43 43 43 42 44 46 42 46 47 46 46 44
49 49 nan nan nan 50 49 47 45 44 nan nan nan nan nan 41 40 38 37 39 39 38 38 38 40 43 45 44 nan nan nan nan nan nan 36 36 nan nan nan nan nan nan nan 29 29 29 29 27 26 29 31 33 36 37 38 39 40 42 41 44 45 45 46
nan nan nan nan nan nan nan 48 46 45 45 nan nan nan 41 41 nan 40 40 40 nan 37 37 37 39 41 43 43 42 nan nan 39 nan nan nan nan nan nan nan nan nan nan nan nan nan 29 28 nan 26 26 25 26 27 nan nan nan nan nan nan nan nan nan nan
45 46 nan nan nan nan nan nan nan nan nan nan nan nan nan nan 41 40 40 nan nan nan 39 38 38 39 40 nan nan nan 39 nan 37 36 nan nan nan nan nan nan nan nan nan nan nan nan nan nan nan nan nan nan nan nan nan nan nan nan nan nan nan nan nan
nan nan nan nan nan nan nan nan nan nan nan nan nan nan nan nan nan nan nan nan nan 37 38 38 39 39 39 39 39 39 nan nan nan nan nan nan nan nan nan 35 nan nan nan nan nan nan nan nan nan nan nan nan nan nan nan nan nan nan nan nan nan nan nan
nan nan nan nan nan nan nan nan nan nan nan nan nan nan nan nan nan nan nan nan nan nan nan nan nan nan 38 39 39 nan nan nan nan nan nan nan nan nan nan nan nan nan nan nan nan nan nan nan nan nan nan nan nan nan nan nan nan nan nan nan nan nan nan
nan nan nan nan nan nan nan nan nan nan nan nan nan nan nan nan nan nan nan nan nan nan nan 36 36 37 38 nan nan nan nan nan nan nan nan nan nan nan nan nan nan nan nan nan nan nan nan nan nan nan nan nan nan nan nan nan nan nan nan nan nan nan nan
41 47 nan nan nan nan nan nan nan nan nan nan nan nan nan nan nan nan nan nan nan nan nan nan nan nan 39 nan nan nan nan nan nan nan nan nan nan nan nan nan nan nan nan nan nan nan nan nan nan nan nan nan nan nan nan nan nan nan nan nan nan nan nan
nan nan nan nan nan nan nan nan nan nan nan nan nan nan nan nan nan nan nan nan nan nan nan nan nan nan nan nan nan nan nan nan nan nan nan nan nan nan nan nan nan nan nan nan nan nan nan nan nan nan nan nan nan nan nan nan nan nan nan nan nan nan nan
nan nan nan nan nan nan nan nan nan nan nan nan nan nan nan nan nan nan nan nan nan nan nan nan nan nan nan nan nan nan nan nan nan nan nan nan nan nan nan nan nan nan nan nan nan nan nan nan nan nan nan nan nan nan nan nan nan nan nan nan nan nan nan
nan nan nan nan nan nan nan nan nan nan nan nan nan nan nan nan nan nan nan nan nan nan nan nan nan nan nan nan nan nan nan nan nan nan nan nan nan nan nan nan nan nan nan nan nan nan nan nan nan nan nan nan nan nan nan nan nan nan nan nan nan nan nan
Wind_Direction
264 255 247 245 245 235 216 215 220 229 236 235 230 229 226 226 229 232 231 234 233 232 233 225 215 220 233 218 198 184 173 176 176 181 193 199 195 196 201 192 190 182 182 187 188 179 185 180 178 174 182 183 178 187 180 181 179 185 189 195 192 196 200
252 246 240 243 252 244 231 211 213 224 234 237 234 236 230 238 238 237 236 241 238 235 237 236 229 221 227 228 218 196 183 180 179 183 186 196 201 201 197 203 194 204 195 189 198 197 197 199 192 191 185 190 194 197 200 198 197 196 204 216 213 217 220
253 249 240 233 240 243 232 208 203 213 228 236 240 242 241 240 242 246 247 246 245 239 235 237 236 229 226 234 229 214 193 188 192 189 182 186 193 191 206 202 201 202 202 206 197 204 206 199 207 204 200 198 208 219 208 215 215 217 220 226 229 238 236
291 278 261 243 226 226 224 206 199 207 221 233 239 247 251 252 247 246 249 255 256 248 243 239 239 235 233 237 236 228 209 195 191 194 189 187 196 190 198 209 199 194 208 199 208 200 208 211 216 217 217 213 213 218 226 225 232 239 241 244 241 248 249
318 304 281 259 235 218 219 216 208 206 216 228 239 244 252 256 251 247 250 256 263 265 257 251 236 237 233 238 233 230 222 212 204 197 198 199 199 201 202 198 212 195 202 204 211 209 205 208 218 226 236 225 227 235 236 246 244 247 251 257 250 254 261
292 288 281 271 254 230 229 226 218 216 217 227 237 242 247 253 249 252 251 256 259 263 258 250 246 241 234 236 232 237 235 226 213 210 208 212 210 206 212 206 205 201 211 196 210 216 224 209 217 230 235 243 236 244 253 258 256 260 265 264 259 259 258
270 271 272 277 274 257 249 238 228 226 225 229 234 236 242 248 252 250 247 250 258 263 265 261 248 245 236 228 231 232 236 234 228 220 221 220 223 207 213 215 208 209 201 217 202 216 231 230 228 232 228 224 234 241 248 248 251 255 262 268 272 268 259
266 265 265 271 273 269 260 250 241 241 237 235 236 237 237 241 245 250 249 244 246 250 250 253 253 248 245 235 231 232 233 231 231 227 224 226 230 219 219 216 219 216 211 213 215 213 226 236 237 236 233 227 233 230 240 249 245 247 259 265 272 272 278
258 261 260 263 263 263 260 250 242 242 248 245 247 243 244 238 239 243 248 249 245 247 248 243 246 248 247 245 241 239 236 232 232 230 230 230 231 230 228 229 220 222 219 213 223 223 213 232 226 237 235 225 236 238 237 243 243 244 247 255 263 263 252
260 258 262 261 256 250 245 240 235 238 245 246 246 245 247 244 241 243 244 248 246 247 250 250 248 249 249 248 248 247 243 239 231 233 235 235 232 231 227 229 230 228 221 219 217 229 224 221 225 239 235 232 238 241 237 246 244 244 257 258 256 258 263
246 255 260 260 260 256 252 252 245 234 239 244 245 246 246 247 246 246 247 247 248 247 248 247 249 252 252 251 251 246 245 246 244 239 236 237 237 239 234 228 225 231 226 226 222 226 232 231 226 234 238 233 240 240 239 244 246 244 245 255 258 261 262
249 247 251 257 257 259 261 257 253 251 242 238 247 250 250 250 250 250 251 252 250 249 251 251 250 252 253 253 252 250 246 245 246 247 247 242 240 242 240 237 231 224 230 226 228 231 231 237 234 235 237 231 235 237 237 236 236 240 236 245 257 261 258
243 243 244 250 258 257 256 256 262 264 262 251 250 246 242 248 254 252 251 252 252 249 250 252 252 252 253 254 256 254 251 246 242 242 246 248 243 241 243 242 242 237 230 232 230 234 234 240 241 239 238 238 234 235 239 237 236 236 238 237 242 251 256
227 236 243 246 253 261 266 267 270 272 268 261 254 246 243 245 247 248 246 247 248 249 249 248 253 255 255 254 256 259 259 254 247 242 241 243 245 241 239 240 242 242 238 234 238 235 236 236 244 245 242 240 238 237 237 242 239 243 241 241 242 250 257
218 227 235 242 246 253 261 268 270 275 279 268 261 259 255 252 251 253 248 242 242 246 248 248 253 257 258 258 256 258 259 258 254 248 244 243 245 244 240 239 239 240 239 239 235 236 236 237 235 239 243 243 241 237 237 242 247 246 252 252 251 244 249
222 229 232 235 238 242 247 255 261 269 276 274 267 263 262 260 260 262 257 249 245 245 246 247 251 254 258 259 254 252 253 256 255 253 249 246 246 248 248 245 243 243 245 243 241 236 233 232 235 235 241 243 244 242 239 240 244 252 242 229 237 250 251
235 237 237 238 238 242 247 250 260 268 272 272 267 264 263 262 263 264 264 258 256 254 250 246 250 252 254 256 256 253 253 253 255 256 254 251 249 249 248 245 242 242 243 243 241 239 241 239 238 238 239 244 247 250 248 244 237 229 247 252 243 241 254
247 244 243 243 244 244 247 252 255 259 260 257 253 250 250 252 254 261 262 262 262 259 257 253 249 251 251 253 256 257 256 253 256 258 259 256 253 251 249 246 244 241 240 239 243 245 243 244 242 240 238 243 245 246 248 248 236 234 232 230 241 245 246
257 254 251 249 250 251 252 254 257 259 258 257 256 254 253 254 257 260 263 269 266 262 259 257 254 252 253 255 255 256 255 255 254 254 254 254 252 249 248 248 246 243 242 242 239 240 244 245 246 247 245 242 244 243 245 245 236 232 233 234 236 243 243
255 256 254 251 251 253 253 253 254 256 256 257 257 255 254 256 259 258 254 254 265 273 270 264 259 257 257 258 259 258 258 257 257 253 251 249 250 251 248 247 243 242 241 239 242 241 243 248 250 248 246 245 245 247 245 243 233 230 233 236 237 242 252
250 251 252 254 252 251 251 253 254 254 255 256 255 254 255 255 256 255 255 258 258 262 269 262 254 254 254 256 258 260 260 261 261 261 260 258 259 259 257 256 251 248 248 251 250 249 248 245 248 247 247 248 250 250 247 244 232 231 231 233 235 240 246
251 252 251 250 253 254 254 253 253 253 252 252 251 251 250 252 254 256 258 259 262 263 263 262 261 256 251 251 251 251 252 255 256 258 259 259 257 261 262 259 254 251 245 243 239 240 246 244 243 247 245 246 249 248 246 244 234 233 234 233 234 237 251
254 249 250 252 256 257 256 253 252 251 250 250 250 249 250 250 253 256 257 259 260 261 261 260 255 248 248 248 246 246 249 253 256 258 260 259 258 257 256 256 253 251 249 251 248 246 244 243 242 242 244 246 246 247 244 243 234 233 235 234 234 240 252
253 251 251 253 253 256 256 254 253 253 252 252 249 248 249 250 252 255 257 259 260 260 256 253 253 251 249 250 251 250 253 255 254 255 256 253 253 255 253 251 251 252 251 254 251 247 246 244 242 240 244 246 247 246 245 242 236 232 233 233 232 235 245
253 252 252 254 256 256 257 255 254 nan nan nan 250 248 248 250 250 252 255 257 259 258 254 253 254 252 250 251 252 251 253 258 259 256 252 250 250 252 253 255 257 252 250 251 249 247 243 241 243 243 240 242 245 245 244 242 238 232 231 232 232 234 245
255 254 253 253 252 254 255 256 256 nan nan nan nan 249 249 248 248 247 246 250 255 256 253 249 248 250 252 252 251 248 248 250 253 252 248 247 245 246 247 251 252 250 250 252 250 247 243 242 244 247 244 245 243 242 240 241 239 234 231 232 233 232 242
254 255 254 252 251 252 255 256 nan nan nan nan nan 248 248 248 248 246 245 247 251 253 253 nan nan 248 246 246 250 252 251 251 254 256 255 254 256 255 249 nan 249 247 252 256 251 246 244 244 244 246 246 244 242 241 241 242 241 237 233 234 236 236 240
246 252 251 251 252 251 250 251 253 252 nan nan nan 245 244 244 245 245 245 244 246 250 253 252 250 249 248 248 nan 255 255 nan nan 258 259 259 260 nan nan nan nan nan nan 258 257 255 255 254 249 246 245 244 242 242 243 243 241 242 239 239 241 243 241
248 245 nan nan nan 247 247 248 248 247 nan nan nan nan nan 243 244 244 244 244 245 249 250 249 249 250 251 253 nan nan nan nan nan nan 258 258 nan nan nan nan nan nan nan 263 262 261 260 258 257 255 250 244 241 240 240 240 239 237 241 240 241 241 244
nan nan nan nan nan nan nan 240 239 238 237 nan nan nan 239 241 nan 243 245 245 nan 251 254 254 251 252 253 254 254 nan nan 258 nan nan nan nan nan nan nan nan nan nan nan nan nan 261 260 nan 264 264 262 258 254 nan nan nan nan nan nan nan nan nan nan
247 249 nan nan nan nan nan nan nan nan nan nan nan nan nan nan 243 246 246 nan nan nan 255 257 256 256 258 nan nan nan 255 nan 252 252 nan nan nan nan nan nan nan nan nan nan nan nan nan nan nan nan nan nan nan nan nan nan nan nan nan nan nan nan nan
nan nan nan nan nan nan nan nan nan nan nan nan nan nan nan nan nan nan nan nan nan 253 256 257 257 258 259 261 260 260 nan nan nan nan nan nan nan nan nan 251 nan nan nan nan nan nan nan nan nan nan nan nan nan nan nan nan nan nan nan nan nan nan nan
nan nan nan nan nan nan nan nan nan nan nan nan nan nan nan nan nan nan nan nan nan nan nan nan nan nan 259 260 260 nan nan nan nan nan nan nan nan nan nan nan nan nan nan nan nan nan nan nan nan nan nan nan nan nan nan nan nan nan nan nan nan nan nan
nan nan nan nan nan nan nan nan nan nan nan nan nan nan nan nan nan nan nan nan nan nan nan 252 254 256 258 nan nan nan nan nan nan nan nan nan nan nan nan nan nan nan nan nan nan nan nan nan nan nan nan nan nan nan nan nan nan nan nan nan nan nan nan
245 239 nan nan nan nan nan nan nan nan nan nan nan nan nan nan nan nan nan nan nan nan nan nan nan nan 257 nan nan nan nan nan nan nan nan nan nan nan nan nan nan nan nan nan nan nan nan nan nan nan nan nan nan nan nan nan nan nan nan nan nan nan nan
nan nan nan nan nan nan nan nan nan nan nan nan nan nan nan nan nan nan nan nan nan nan nan nan nan nan nan nan nan nan nan nan nan nan nan nan nan nan nan nan nan nan nan nan nan nan nan nan nan nan nan nan nan nan nan nan nan nan nan nan nan nan nan
nan nan nan nan nan nan nan nan nan nan nan nan nan nan nan nan nan nan nan nan nan nan nan nan nan nan nan nan nan nan nan nan nan nan nan nan nan nan nan nan nan nan nan nan nan nan nan nan nan nan nan nan nan nan nan nan nan nan nan nan nan nan nan
nan nan nan nan nan nan nan nan nan nan nan nan nan nan nan nan nan nan nan nan nan nan nan nan nan nan nan nan nan nan nan nan nan nan nan nan nan nan nan nan nan nan nan nan nan nan nan nan nan nan nan nan nan nan nan nan nan nan nan nan nan nan nan